H1 CPF 2 COD 2020 10 18 1 292 1 galileo214 NONE
H2 1606904 7214 41862 2020 10 17 23 59 42 2020 10 22 23 44 42 900 1 1 0 0 0 1
H5 0.5552
H9
10 0 59144  26982.000000  0  -11434540.422 -18032507.417 -20506213.148
10 0 59144  27882.000000  0   -9575957.989 -17593808.863 -21798741.847
10 0 59144  28782.000000  0   -7588948.874 -17264621.749 -22820286.861
10 0 59144  29682.000000  0   -5505234.863 -17062426.176 -23558153.884
10 0 59144  30582.000000  0   -3359267.261 -16999317.155 -24003172.579
10 0 59144  31482.000000  0   -1187213.616 -17081613.939 -24149810.060
10 0 59144  32382.000000  0     974108.717 -17309653.029 -23996239.457
10 0 59144  33282.000000  0    3088318.990 -17677771.327 -23544362.736
10 0 59144  34182.000000  0    5120545.651 -18174480.000 -22799787.490
10 0 59144  35082.000000  0    7038451.757 -18782823.644 -21771757.960
10 0 59144  35982.000000  0    8813181.337 -19480913.572 -20473041.094
10 0 59144  36882.000000  0   10420197.200 -20242618.596 -18919768.980
10 0 59144  37782.000000  0   11839984.140 -21038391.752 -17131239.522
10 0 59144  38682.000000  0   13058595.626 -21836207.138 -15129677.725
10 0 59144  39582.000000  0   14068026.920 -22602577.573 -12939960.476
10 0 59144  40482.000000  0   14866402.987 -23303621.221 -10589308.152
10 0 59144  41382.000000  0   15457975.391 -23906143.741  -8106946.794
10 0 59144  42282.000000  0   15852928.246 -24378702.035  -5523745.041
10 0 59144  43182.000000  0   16066999.380 -24692616.148  -2871830.305
10 0 59144  44082.000000  0   16120928.632 -24822897.540   -184188.939
10 0 59144  44982.000000  0   16039750.606 -24749064.473   2505744.537
10 0 59144  45882.000000  0   15851954.179 -24455818.861   5164504.025
10 0 59144  46782.000000  0   15588535.201 -23933563.192   7759008.992
10 0 59144  47682.000000  0   15281972.212 -23178741.219  10256976.886
10 0 59144  48582.000000  0   14965157.440 -22193991.625  12627325.609
10 0 59144  49482.000000  0   14670316.740 -20988109.723  14840560.998
10 0 59144  50382.000000  0   14427952.473 -19575818.346  16869144.394
10 0 59144  51282.000000  0   14265842.600 -17977355.035  18687835.708
10 0 59144  52182.000000  0   14208127.496 -16217888.366  20274007.705
10 0 59144  53082.000000  0   14274513.191 -14326781.719  21607927.572
10 0 59144  53982.000000  0   14479616.100 -12336727.444  22673002.311
10 0 59144  54882.000000  0   14832469.847 -10282778.488  23455984.938
10 0 59144  55782.000000  0   15336209.674  -8201307.748  23947138.959
10 0 59144  56682.000000  0   15987944.368  -6128927.639  24140359.130
10 0 59144  57582.000000  0   16778819.757  -4101403.558  24033247.057
10 0 59144  58482.000000  0   17694271.830  -2152595.195  23627140.702
10 0 59144  59382.000000  0   18714461.553   -313458.652  22927097.494
10 0 59144  60282.000000  0   19814877.861   1388859.526  21941831.221
10 0 59144  61182.000000  0   20967089.913   2931808.175  20683603.517
10 0 59144  62082.000000  0   22139625.126   4298072.731  19168071.260
10 0 59144  62982.000000  0   23298945.516   5476051.946  17414091.743
10 0 59144  63882.000000  0   24410491.753   6460155.243  15443488.032
10 0 59144  64782.000000  0   25439762.270   7250911.580  13280777.388
10 0 59144  65682.000000  0   26353393.590   7854886.528  10952866.086
10 0 59144  66582.000000  0   27120208.014   8284410.275   8488714.462
10 0 59144  67482.000000  0   27712195.816   8557125.229   5918976.313
10 0 59144  68382.000000  0   28105401.117   8695367.533   3275617.176
10 0 59144  69282.000000  0   28280683.659   8725402.009    591516.263
10 0 59144  70182.000000  0   28224332.556   8676534.671  -2099942.933
10 0 59144  71082.000000  0   27928512.765   8580130.785  -4765288.260
10 0 59144  71982.000000  0   27391530.271   8468569.392  -7371375.470
10 0 59144  72882.000000  0   26617907.684   8374167.204  -9885800.532
10 0 59144  73782.000000  0   25618267.860   8328105.774 -12277302.529
10 0 59144  74682.000000  0   24409029.236   8359395.618 -14516152.073
10 0 59144  75582.000000  0   23011922.429   8493909.896 -16574520.443
10 0 59144  76482.000000  0   21453343.221   8753517.983 -18426824.866
10 0 59144  77382.000000  0   19763562.231   9155346.128 -20050045.691
10 0 59144  78282.000000  0   17975815.943   9711188.414 -21424011.574
10 0 59144  79182.000000  0   16125307.513  10427086.495 -22531649.236
10 0 59144  80082.000000  0   14248148.526  11303091.311 -23359194.744
10 0 59144  80982.000000  0   12380274.733  12333214.279 -23896363.790
10 0 59144  81882.000000  0   10556369.498  13505569.576 -24136478.950
10 0 59144  82782.000000  0    8808828.552  14802703.105 -24076552.360
10 0 59144  83682.000000  0    7166798.225  16202097.994 -23717322.868
10 0 59144  84582.000000  0    5655317.091  17676840.912 -23063247.170
10 0 59144  85482.000000  0    4294587.757  19196428.495 -22122445.052
99